measurement_time,temperature,humidity
1503343249,28.19,79.10
1503343189,28.11,79.45
1503343129,28.03,80.73
1503343069,27.98,81.18
1503343009,28.11,81.15
1503342949,28.10,81.55
1503342889,28.14,81.83
1503342829,28.18,80.13
1503342769,28.18,79.51
1503342709,28.23,79.22
1503342649,28.20,79.50
1503342589,28.18,79.29
1503342529,28.30,79.08
1503342469,28.33,79.18
1503342409,28.34,79.65
1503342349,28.32,80.15
1503342289,28.31,80.99
1503342229,28.32,81.30
1503342169,28.31,80.44
1503342109,28.25,80.36
1503342049,28.15,81.01
1503341989,28.13,81.43
1503341929,28.17,81.85
1503341869,28.19,82.13
1503341809,28.21,82.43
1503341749,28.20,82.43
1503341689,28.19,82.71
1503341629,28.20,81.81
1503341569,28.25,81.29
1503341509,28.21,79.57
1503341449,28.28,79.51
1503341389,28.28,79.90
1503341329,28.37,79.61
1503341269,28.33,79.90
1503341209,28.38,79.74
1503341149,28.43,79.64
1503341089,28.45,80.00
1503341029,28.48,80.09
1503340969,28.53,80.21
1503340909,28.56,80.09
1503340849,28.61,78.82
1503340789,28.64,78.11
1503340729,28.69,79.52
1503340669,28.70,79.68
1503340609,28.78,79.19
1503340549,28.80,76.65
1503340489,28.94,75.89
1503340429,28.92,76.53
1503340369,28.94,76.69
1503340309,28.99,76.25
1503340249,29.07,76.20
1503340189,29.07,75.93
1503340129,29.03,75.84
1503340069,29.05,75.71
1503340009,29.05,75.71
1503339949,29.07,75.85
1503339889,29.03,75.82
1503339829,29.06,76.43
1503339769,29.12,75.65
1503339709,29.13,75.40
1503339649,29.14,75.10
1503339589,29.21,74.69
1503339529,29.27,74.56
1503339469,29.26,74.40
1503339409,29.29,74.36
1503339349,29.28,74.56
1503339289,29.20,74.68
1503339229,29.26,74.78
1503339169,29.31,74.51
1503339109,29.28,74.65
1503339049,29.37,75.55
1503338989,29.42,72.72
1503338929,29.45,73.48
1503338869,29.42,73.73
1503338809,29.41,73.44
1503338749,29.43,73.56
1503338689,29.51,73.85
1503338629,29.53,73.59
1503338569,29.53,73.41
1503338509,29.59,73.27
1503338449,29.53,72.38
1503338389,29.57,71.58
1503338329,29.60,71.08
1503338269,29.61,70.97
1503338209,29.71,71.15
1503338149,29.61,72.63
1503338089,29.64,71.68
1503338029,29.62,73.04
1503337969,29.61,71.86
1503337909,29.65,71.99
1503337849,29.53,72.91
1503337789,29.48,73.17
1503337729,29.43,74.07
1503337669,29.34,74.85
1503337609,29.37,73.64
1503337549,29.28,73.46
1503337489,29.23,74.20
1503337429,29.18,75.65
1503337369,29.20,75.54
1503337309,29.19,77.70
1503337249,29.20,77.17
1503337189,29.20,76.55
1503337129,29.21,75.89
1503337069,29.16,75.33
1503337009,29.09,75.52
1503336949,29.12,75.75
1503336889,29.15,75.99
1503336829,29.20,75.58
1503336769,29.31,75.37
1503336709,29.31,72.79
1503336649,29.20,73.17
1503336589,29.29,72.61
1503336529,29.28,72.14
1503336469,29.21,72.31
1503336409,29.09,75.28
1503336349,29.09,75.47
1503336289,29.19,73.13
1503336229,29.21,71.66
1503336169,29.20,71.82
1503336109,29.20,73.37
1503336049,29.19,73.84
1503335989,29.17,73.81
1503335929,29.08,73.98
1503335869,28.98,73.93
1503335809,28.89,76.10
1503335749,28.93,75.32
1503335689,28.94,75.12
1503335629,29.02,75.04
1503335569,28.99,75.71
1503335509,28.99,74.84
1503335449,28.91,74.68
1503335389,28.88,75.10
1503335329,28.94,74.23
1503335269,28.93,73.75
1503335209,28.88,73.83
1503335149,28.89,73.98
1503335089,29.00,73.29
1503335029,29.02,73.19
1503334969,28.94,74.80
1503334909,28.89,74.25
1503334849,28.89,74.00
1503334789,28.91,74.26
1503334729,28.86,75.70
1503334669,28.85,75.64
1503334609,28.80,74.55
1503334549,28.86,74.10
1503334489,28.87,74.37
1503334429,28.85,74.43
1503334369,28.71,76.66
1503334309,28.65,76.92
1503334249,28.71,77.00
1503334189,28.70,76.87
1503334129,28.69,76.51
1503334069,28.60,76.32
1503334009,28.34,77.97
1503333949,28.38,78.55
1503333889,28.44,78.15
1503333829,28.41,78.46
1503333769,28.45,78.26
1503333709,28.44,77.92
1503333649,28.50,77.74
1503333589,28.43,75.65
1503333529,28.37,76.39
1503333469,28.27,77.76
1503333409,28.25,77.44
1503333349,28.28,77.30
1503333289,28.26,76.00
1503333229,28.30,76.30
1503333169,28.16,77.37
1503333109,28.16,77.93
1503333049,28.02,79.35
1503332989,27.98,78.91
1503332929,28.04,77.91
1503332869,28.09,77.76
1503332809,28.03,78.61
1503332749,27.99,78.91
1503332689,27.97,79.27
1503332629,28.01,79.30
1503332569,28.02,79.97
1503332509,27.99,80.61
1503332449,27.91,82.33
1503332389,27.85,81.28
1503332329,27.83,80.90
1503332269,27.80,81.23
1503332209,27.82,81.38
1503332149,27.82,81.64
1503332089,27.80,81.85
1503332029,27.83,80.83
1503331969,27.76,82.54
1503331909,27.78,81.26
1503331849,27.82,80.14
1503331789,27.78,81.20
1503331729,27.75,81.28
1503331669,27.71,82.03
1503331609,27.60,82.24
1503331549,27.61,82.92
1503331489,27.66,82.31
1503331429,27.68,81.79
1503331369,27.67,81.59
1503331309,27.69,80.03
1503331249,27.67,80.13
1503331189,27.65,81.67
1503331129,27.60,81.83
1503331069,27.57,81.04
1503331009,27.56,82.09
1503330949,27.52,82.12
1503330889,27.52,81.71
1503330829,27.50,81.89
1503330769,27.41,81.99
1503330709,27.30,82.16
1503330649,27.35,81.73
1503330589,27.35,82.13
1503330529,27.29,82.30
1503330469,27.29,82.21
1503330409,27.30,82.31
1503330349,27.30,82.65
1503330289,27.31,82.74
1503330229,27.40,82.74
1503330169,27.37,81.57
1503330109,27.29,81.60
1503330049,27.24,82.26
1503329989,27.19,82.07
1503329929,27.15,82.10
1503329869,27.19,82.11
1503329809,27.13,82.93
1503329749,27.15,81.90
1503329689,27.16,81.23
1503329629,27.19,81.24
1503329569,27.20,81.12
1503329509,27.19,81.80
1503329449,27.09,82.58
1503329389,27.04,84.50
1503329329,27.04,84.41
1503329269,27.04,84.18
1503329209,26.98,83.53
1503329149,26.95,83.34
1503329089,26.94,83.02
1503329029,27.00,82.63
1503328969,27.02,82.06
1503328909,26.93,83.72
1503328849,26.89,83.29
1503328789,26.85,83.19
1503328729,26.80,84.15
1503328669,26.79,83.61
1503328609,26.73,85.21
1503328549,26.73,84.15
1503328489,26.67,84.10
1503328429,26.66,83.04
1503328369,26.62,83.35
1503328309,26.53,85.60
1503328249,26.51,85.55
1503328189,26.53,86.18
1503328129,26.57,85.16
1503328069,26.60,84.73
1503328009,26.67,84.57
1503327949,26.69,85.44
1503327889,26.66,85.08
1503327829,26.66,84.51
1503327769,26.66,84.66
1503327709,26.57,84.53
1503327649,26.62,83.71
1503327589,26.55,84.02
1503327529,26.51,84.15
1503327469,26.52,84.07
1503327409,26.48,83.52
1503327349,26.45,83.57
1503327289,26.42,84.63
1503327229,26.37,86.66
1503327169,26.40,86.66
1503327109,26.34,85.59
1503327049,26.28,85.56
1503326989,26.26,85.05
1503326929,26.28,84.73
1503326869,26.25,84.76
1503326809,26.22,84.94
1503326749,26.20,85.46
1503326689,26.22,85.81
1503326629,26.22,85.43
1503326569,26.19,84.77
1503326509,26.17,84.40
1503326449,26.19,84.81
1503326389,26.17,84.69
1503326329,26.22,84.48
1503326269,26.23,84.56
1503326209,26.18,84.78
1503326149,26.19,85.20
1503326089,26.09,85.47
1503326029,26.09,86.22
1503325969,26.07,85.73
1503325909,26.07,86.10
1503325849,26.02,86.04
1503325789,26.03,85.30
1503325729,26.02,85.41
1503325669,26.02,86.19
1503325609,25.93,86.68
1503325549,25.93,86.65
1503325489,25.95,86.28
1503325429,25.90,86.02
1503325369,25.88,85.80
1503325309,25.91,85.63
1503325249,25.92,86.14
1503325189,25.84,86.22
1503325129,25.80,86.34
1503325069,25.77,87.10
1503325009,25.73,87.28
1503324949,25.71,86.79
1503324889,25.68,86.92
1503324829,25.64,86.80
1503324769,25.60,86.72
1503324709,25.60,87.72
1503324649,25.60,87.85
1503324589,25.57,87.36
1503324529,25.59,86.86
1503324469,25.57,86.61
1503324409,25.63,86.46
1503324349,25.53,87.17
1503324289,25.52,87.19
1503324229,25.47,87.78
1503324169,25.47,87.66
1503324109,25.47,87.82
1503324049,25.43,88.40
1503323989,25.37,88.02
1503323929,25.34,87.20
1503323869,25.36,87.00
1503323809,25.33,87.08
1503323749,25.36,86.85
1503323689,25.30,87.19
1503323629,25.28,87.63
1503323569,25.24,87.42
1503323509,25.21,88.13
1503323449,25.16,88.23
1503323389,25.19,87.92
1503323329,25.15,87.79
1503323269,25.13,87.76
1503323209,25.13,87.81
1503323149,25.12,87.88
1503323089,25.10,87.81
1503323029,25.09,87.85
1503322969,25.06,87.72
1503322909,25.04,87.59
1503322849,25.02,87.78
1503322789,25.03,87.66
1503322729,25.01,87.66
1503322669,25.01,87.69
1503322609,24.99,88.17
1503322549,24.95,88.06
1503322489,24.97,87.78
1503322429,24.95,88.25
1503322369,24.94,88.03
1503322309,24.94,87.86
1503322249,24.94,87.91
1503322189,24.93,88.00
1503322129,24.95,88.07
1503322069,24.89,88.57
1503322009,24.80,88.59
1503321949,24.82,88.46
1503321889,24.87,88.28
1503321829,24.84,88.52
1503321769,24.79,88.81
1503321709,24.83,88.85
1503321649,24.83,89.26
1503321589,24.76,89.43
1503321529,24.79,88.78
1503321469,24.77,88.14
1503321409,24.75,88.04
1503321349,24.79,87.98
1503321289,24.76,88.62
1503321229,24.71,89.52
1503321169,24.71,89.55
1503321109,24.76,89.28
1503321049,24.77,89.22
1503320989,24.63,89.50
1503320929,24.59,89.55
1503320869,24.59,88.98
1503320809,24.58,89.28
1503320749,24.55,89.11
1503320689,24.55,89.10
1503320629,24.58,89.02
1503320569,24.56,89.04
1503320509,24.50,89.27
1503320449,24.50,89.71
1503320389,24.47,89.62
1503320329,24.53,89.57
1503320269,24.38,90.20
1503320209,24.40,90.10
1503320149,24.40,90.15
1503320089,24.33,90.21
1503320029,24.39,90.02
1503319969,24.38,89.97
1503319909,24.26,90.38
1503319849,24.23,90.40
1503319789,24.19,89.94
1503319729,24.24,90.14
1503319669,24.09,90.63
1503319609,24.08,90.54
1503319549,24.09,90.57
1503319489,24.04,90.97
1503319429,24.00,91.32
1503319369,23.98,91.62
1503319309,23.98,91.79
1503319249,23.96,91.77
1503319189,23.95,91.21
1503319129,23.97,91.16
1503319069,23.91,91.29
1503319009,23.88,90.91
1503318949,23.88,91.27
1503318889,23.85,91.42
1503318829,23.82,91.25
1503318769,23.75,91.34
1503318709,23.74,91.44
1503318649,23.73,91.36
1503318589,23.70,91.41
1503318529,23.67,91.16
1503318469,23.67,91.23
1503318409,23.66,91.13
1503318349,23.59,91.39
1503318289,23.57,91.51
1503318229,23.57,91.12
1503318169,23.58,91.24
1503318109,23.57,91.16
1503318049,23.60,90.68
1503317989,23.56,90.91
1503317929,23.52,90.78
1503317869,23.47,90.94
1503317809,23.45,90.91
1503317749,23.41,91.03
1503317689,23.41,91.10
1503317629,23.38,91.19
1503317569,23.38,91.03
1503317509,23.42,90.91
1503317449,23.36,91.13
1503317389,23.39,91.13
1503317329,23.34,90.85
1503317269,23.36,90.71
1503317209,23.32,90.74
1503317149,23.30,90.80
1503317089,23.27,90.90
1503317029,23.26,90.97
1503316969,23.22,90.97
1503316909,23.22,90.92
1503316849,23.24,91.10
1503316789,23.23,91.02
1503316729,23.20,90.93
1503316669,23.21,90.71
1503316609,23.20,90.65
1503316549,23.21,90.80
1503316489,23.16,90.65
1503316429,23.17,90.74
1503316369,23.11,90.75
1503316309,23.16,90.29
1503316249,23.07,90.32
1503316189,23.06,90.30
1503316129,23.10,90.36
1503316069,23.03,90.61
1503316009,23.02,90.73
1503315949,23.00,90.70
1503315889,22.97,90.50
1503315829,22.97,90.60
1503315769,22.95,90.63
1503315709,23.02,90.49
1503315649,22.96,90.55
1503315589,22.88,90.31
1503315529,22.91,90.20
1503315469,22.91,90.48
1503315409,22.82,90.47
1503315349,22.85,90.22
1503315289,22.83,90.34
1503315229,22.77,90.24
1503315169,22.77,90.29
1503315109,22.75,90.44
1503315049,22.71,90.49
1503314989,22.71,90.42
1503314929,22.70,90.39
1503314869,22.68,90.37
1503314809,22.67,90.68
1503314749,22.63,90.68
1503314689,22.62,90.60
1503314629,22.64,90.50
1503314569,22.66,90.53
1503314509,22.65,90.58
1503314449,22.63,90.65
1503314389,22.65,90.60
1503314329,22.66,90.55
1503314269,22.69,90.53
1503314209,22.65,90.66
1503314149,22.63,90.68
1503314089,22.61,90.73
1503314029,22.64,90.81
1503313969,22.62,90.78
1503313909,22.61,90.55
1503313849,22.61,90.49
1503313789,22.56,90.90
1503313729,22.52,90.90
1503313669,22.55,90.77
1503313609,22.55,90.73
1503313549,22.56,90.64
1503313489,22.57,90.61
1503313429,22.58,90.65
1503313369,22.55,90.58
1503313309,22.55,90.37
1503313249,22.57,90.39
1503313189,22.53,90.39
1503313129,22.54,90.58
1503313069,22.46,90.68
1503313009,22.46,90.80
1503312949,22.39,90.81
1503312889,22.42,90.63
1503312829,22.46,90.55
1503312769,22.42,90.62
1503312709,22.39,90.75
1503312649,22.40,90.63
1503312589,22.41,90.63
1503312529,22.44,90.36
1503312469,22.42,90.46
1503312409,22.40,90.55
1503312349,22.39,90.58
1503312289,22.40,90.52
1503312229,22.37,90.61
1503312169,22.42,90.39
1503312109,22.44,90.36
1503312049,22.46,90.26
1503311989,22.42,90.20
1503311929,22.42,90.17
1503311869,22.52,89.96
1503311809,22.56,89.97
1503311749,22.55,90.06
1503311689,22.53,90.16
1503311629,22.52,90.23
1503311569,22.51,90.25
1503311509,22.47,90.03
1503311449,22.62,89.84
1503311389,22.72,89.46
1503311329,22.69,89.45
1503311269,22.66,89.68
1503311209,22.65,89.74
1503311149,22.67,89.81
1503311089,22.68,89.80
1503311029,22.63,90.06
1503310969,22.61,90.05
1503310909,22.58,90.34
1503310849,22.58,90.29
1503310789,22.60,90.20
1503310729,22.61,90.19
1503310669,22.54,90.31
1503310609,22.55,90.04
1503310549,22.58,89.97
1503310489,22.60,89.98
1503310429,22.60,89.93
1503310369,22.61,89.90
1503310309,22.61,89.88
1503310249,22.63,90.04
1503310189,22.54,90.34
1503310129,22.58,90.13
1503310069,22.57,90.07
1503310009,22.61,89.99
1503309949,22.60,89.94
1503309889,22.58,89.92
1503309829,22.60,89.97
1503309769,22.58,90.10
1503309709,22.55,90.22
1503309649,22.51,90.36
1503309589,22.52,90.24
1503309529,22.52,90.38
1503309469,22.48,90.65
1503309409,22.48,90.52
1503309349,22.47,90.34
1503309289,22.46,90.36
1503309229,22.52,90.20
1503309169,22.48,90.26
1503309109,22.48,90.11
1503309049,22.43,90.07
1503308989,22.50,90.11
1503308929,22.44,90.08
1503308869,22.46,89.81
1503308809,22.51,89.75
1503308749,22.51,89.59
1503308689,22.54,89.60
1503308629,22.53,89.74
1503308569,22.51,89.55
1503308509,22.51,89.28
1503308449,22.56,89.17
1503308389,22.58,89.17
1503308329,22.52,89.51
1503308269,22.44,89.74
1503308209,22.41,89.66
1503308149,22.49,89.68
1503308089,22.50,89.76
1503308029,22.48,89.91
1503307969,22.46,89.89
1503307909,22.50,89.69
1503307849,22.51,89.77
1503307789,22.46,89.83
1503307729,22.43,89.90
1503307669,22.44,89.63
1503307609,22.43,89.49
1503307549,22.46,89.55
1503307489,22.44,89.37
1503307429,22.43,89.35
1503307369,22.42,89.31
1503307309,22.38,89.40
1503307249,22.38,89.36
1503307189,22.39,89.60
1503307129,22.41,89.36
1503307069,22.35,89.46
1503307009,22.35,89.38
1503306949,22.37,89.40
1503306889,22.36,89.42
1503306829,22.33,89.33
1503306769,22.41,89.10
1503306709,22.39,89.13
1503306649,22.41,89.14
1503306589,22.46,89.05
1503306529,22.47,88.97
1503306469,22.53,88.95
1503306409,22.43,89.11
1503306349,22.51,88.92
1503306289,22.46,89.20
1503306229,22.46,89.16
1503306169,22.48,89.10
1503306109,22.49,89.07
1503306049,22.52,89.21
1503305989,22.46,89.27
1503305929,22.50,89.28
1503305869,22.48,89.36
1503305809,22.46,89.34
1503305749,22.49,89.26
1503305689,22.49,89.12
1503305629,22.53,89.01
1503305569,22.50,89.01
1503305509,22.48,89.14
1503305449,22.50,88.99
1503305389,22.50,89.03
1503305329,22.50,89.13
1503305269,22.49,89.08
1503305209,22.51,89.10
1503305149,22.48,89.23
1503305089,22.46,89.25
1503305029,22.50,89.25
1503304969,22.43,89.26
1503304909,22.51,89.17
1503304849,22.51,89.04
1503304789,22.46,89.16
1503304729,22.42,88.91
1503304669,22.52,88.88
1503304609,22.51,88.99
1503304549,22.54,88.75
1503304489,22.54,88.61
1503304429,22.64,88.49
1503304369,22.55,88.78
1503304309,22.55,88.99
1503304249,22.51,89.12
1503304189,22.51,88.90
1503304129,22.54,89.14
1503304069,22.49,89.21
1503304009,22.47,89.27
1503303949,22.52,89.01
1503303889,22.54,89.01
1503303829,22.54,88.93
1503303769,22.54,88.78
1503303709,22.58,88.69
1503303649,22.53,88.63
1503303589,22.54,88.77
1503303529,22.52,88.86
1503303469,22.52,88.73
1503303409,22.52,88.78
1503303349,22.52,89.08
1503303289,22.46,88.96
1503303229,22.46,88.91
1503303169,22.53,88.62
1503303109,22.50,88.84
1503303049,22.51,88.98
1503302989,22.51,88.82
1503302929,22.53,88.78
1503302869,22.48,88.91
1503302809,22.47,89.04
1503302749,22.42,89.13
1503302689,22.51,88.84
1503302629,22.51,88.59
1503302569,22.51,88.59
1503302509,22.51,88.40
1503302449,22.51,88.64
1503302389,22.41,89.01
1503302329,22.39,88.98
1503302269,22.40,88.93
1503302209,22.51,88.79
1503302149,22.50,88.68
1503302089,22.53,88.83
1503302029,22.55,88.60
1503301969,22.60,88.37
1503301909,22.62,88.52
1503301849,22.56,88.32
1503301789,22.61,88.41
1503301729,22.56,88.60
1503301669,22.61,88.49
1503301609,22.57,88.49
1503301549,22.61,88.30
1503301489,22.64,88.18
1503301429,22.64,88.14
1503301369,22.60,88.23
1503301309,22.54,88.24
1503301249,22.56,88.07
1503301189,22.58,88.18
1503301129,22.58,88.30
1503301069,22.58,88.46
1503301009,22.61,88.49
1503300949,22.58,88.51
1503300889,22.56,88.39
1503300829,22.57,88.29
1503300769,22.64,88.20
1503300709,22.64,88.09
1503300649,22.64,88.22
1503300589,22.57,88.28
1503300529,22.55,88.25
1503300469,22.54,88.07
1503300409,22.56,88.20
1503300349,22.60,88.09
1503300289,22.61,88.02
1503300229,22.60,88.17
1503300169,22.57,88.36
1503300109,22.54,88.43
1503300049,22.54,88.42
1503299989,22.65,88.01
1503299929,22.56,88.05
1503299869,22.63,87.81
1503299809,22.66,87.93
1503299749,22.61,88.15
1503299689,22.61,87.88
1503299629,22.71,87.58
1503299569,22.66,88.01
1503299509,22.71,88.01
1503299449,22.69,88.33
1503299389,22.72,88.21
1503299329,22.71,88.00
1503299269,22.69,87.91
1503299209,22.71,87.94
1503299149,22.69,88.30
1503299089,22.67,88.36
1503299029,22.64,88.50
1503298969,22.64,88.43
1503298909,22.57,88.43
1503298849,22.55,88.46
1503298789,22.56,88.28
1503298729,22.56,88.24
1503298669,22.51,88.36
1503298609,22.50,88.33
1503298549,22.49,88.36
1503298489,22.44,88.53
1503298429,22.46,88.52
1503298369,22.50,88.24
1503298309,22.51,88.10
1503298249,22.51,88.11
1503298189,22.49,88.16
1503298129,22.47,88.17
1503298069,22.50,88.20
1503298009,22.51,88.14
1503297949,22.51,88.20
1503297889,22.50,88.06
1503297829,22.54,87.86
1503297769,22.55,87.75
1503297709,22.53,87.89
1503297649,22.47,87.90
1503297589,22.46,87.92
1503297529,22.49,87.90
1503297469,22.46,88.14
1503297409,22.43,88.14
1503297349,22.48,87.82
1503297289,22.48,87.87
1503297229,22.48,87.80
1503297169,22.48,87.72
1503297109,22.46,87.88
1503297049,22.46,87.78
1503296989,22.46,88.05
1503296929,22.40,88.02
1503296869,22.48,87.83
1503296809,22.50,87.78
1503296749,22.44,87.62
1503296689,22.49,87.75
1503296629,22.47,87.79
1503296569,22.49,87.59
1503296509,22.52,87.52
1503296449,22.55,87.40
1503296389,22.56,87.48
1503296329,22.53,87.34
1503296269,22.58,87.32
1503296209,22.56,87.46
1503296149,22.61,87.29
1503296089,22.62,87.09
1503296029,22.60,87.33
1503295969,22.64,87.01
1503295909,22.70,87.01
1503295849,22.72,87.11
1503295789,22.69,87.06
1503295729,22.71,87.11
1503295669,22.73,86.96
1503295609,22.65,87.18
1503295549,22.66,87.16
1503295489,22.64,87.07
1503295429,22.70,86.82
1503295369,22.76,87.11
1503295309,22.67,87.22
1503295249,22.64,87.01
1503295189,22.68,87.06
1503295129,22.67,86.92
1503295069,22.68,86.78
1503295009,22.73,86.62
1503294949,22.71,87.08
1503294889,22.68,87.21
1503294829,22.65,87.12
1503294769,22.64,87.16
1503294709,22.61,87.24
1503294649,22.65,87.27
1503294589,22.64,86.98
1503294529,22.65,86.89
1503294469,22.61,86.88
1503294409,22.61,87.04
1503294349,22.61,86.88
1503294289,22.63,87.08
1503294229,22.65,86.95
1503294169,22.61,87.03
1503294109,22.58,86.91
1503294049,22.57,87.13
1503293989,22.51,87.58
1503293929,22.58,87.11
1503293869,22.61,86.98
1503293809,22.65,86.84
1503293749,22.64,86.84
1503293689,22.64,86.84
1503293629,22.60,86.92
1503293569,22.57,86.88
1503293509,22.62,87.01
1503293449,22.62,86.75
1503293389,22.62,86.54
1503293329,22.64,86.88
1503293269,22.57,87.14
1503293209,22.58,86.84
1503293149,22.62,86.68
1503293089,22.56,86.76
1503293030,22.58,86.85
1503292970,22.55,86.72
1503292910,22.55,86.71
1503292850,22.55,86.78
1503292790,22.48,86.88
1503292730,22.54,86.78
1503292670,22.61,86.67
1503292610,22.57,86.66
1503292550,22.58,86.53
1503292489,22.53,86.74
1503292429,22.54,86.67
1503292369,22.54,86.69
1503292309,22.52,86.73
1503292249,22.53,86.78
1503292189,22.56,86.62
1503292129,22.57,86.58
1503292069,22.62,86.20
1503292009,22.68,86.08
1503291949,22.62,86.30
1503291889,22.57,86.59
1503291829,22.52,86.59
1503291769,22.60,86.31
1503291709,22.61,86.43
1503291649,22.58,86.32
1503291589,22.64,86.37
1503291529,22.63,86.32
1503291469,22.62,86.33
1503291409,22.67,86.05
1503291349,22.68,86.21
1503291289,22.62,86.28
1503291229,22.68,86.21
1503291169,22.66,86.33
1503291109,22.66,86.27
1503291049,22.72,85.76
1503290989,22.75,85.84
1503290929,22.75,85.75
1503290869,22.75,85.92
1503290809,22.76,85.82
1503290749,22.77,85.87
1503290689,22.76,85.75
1503290629,22.83,85.73
1503290569,22.84,85.68
1503290509,22.83,85.87
1503290449,22.81,86.01
1503290389,22.78,86.15
1503290329,22.85,85.60
1503290269,22.93,85.53
1503290209,22.94,85.88
1503290149,22.84,86.01
1503290089,22.80,86.00
1503290029,22.83,85.93
1503289969,22.79,85.85
1503289909,22.81,85.82
1503289849,22.79,85.73
1503289789,22.80,85.77
1503289729,22.76,85.94
1503289669,22.71,85.85
1503289609,22.70,85.87
1503289549,22.77,85.70
1503289489,22.77,85.51
1503289429,22.76,85.18
1503289369,22.81,85.39
1503289309,22.82,85.37
1503289249,22.84,85.08
1503289189,22.91,85.08
1503289129,22.87,84.97
1503289069,22.96,85.03
1503289009,22.90,85.24
1503288949,22.98,84.73
1503288889,22.97,85.02
1503288829,22.87,85.50
1503288769,22.88,85.70
1503288709,22.91,85.56
1503288649,22.95,85.65
1503288589,22.88,85.54
1503288529,22.90,85.40
1503288469,22.90,85.21
1503288409,22.90,85.21
1503288349,22.87,85.17
1503288289,22.88,85.21
1503288229,22.86,84.99
1503288169,22.90,84.61
1503288109,22.91,84.60
1503288049,22.88,84.85
1503287989,22.88,85.03
1503287929,22.87,85.11
1503287869,22.88,85.01
1503287809,22.90,84.85
1503287749,22.91,84.76
1503287689,22.94,84.79
1503287629,22.96,84.44
1503287569,23.02,84.31
1503287509,23.03,84.21
1503287449,22.98,84.65
1503287389,22.95,84.68
1503287329,22.93,84.59
1503287269,22.98,84.68
1503287209,22.99,84.72
1503287149,23.00,84.52
1503287089,23.00,84.48
1503287029,22.96,84.72
1503286969,22.90,84.36
1503286909,22.95,84.32
1503286849,23.02,84.42
1503286789,23.00,84.24
1503286729,22.98,84.40
1503286669,22.94,84.66
1503286609,22.90,84.77
1503286549,22.85,84.81
1503286489,22.87,84.85
1503286429,22.91,84.66
1503286369,22.90,84.76
1503286309,22.95,84.48
1503286249,22.93,84.50
1503286189,22.92,84.67
1503286129,22.92,85.05
1503286069,22.92,84.97
1503286009,22.87,84.60
1503285949,22.92,84.24
1503285889,22.83,84.62
1503285829,22.92,84.56
1503285769,22.98,84.59
1503285709,22.94,84.83
1503285649,22.97,84.66
1503285589,22.96,84.59
1503285529,23.03,84.53
1503285469,23.03,84.35
1503285409,23.05,84.07
1503285349,23.03,84.20
1503285289,23.00,84.47
1503285229,23.03,84.18
1503285169,23.02,84.25
1503285109,22.97,84.28
1503285049,22.95,84.34
1503284989,22.97,84.38
1503284929,23.00,84.18
1503284869,23.06,84.16
1503284809,23.02,84.36
1503284749,22.99,84.19
1503284689,23.02,84.22
1503284629,23.03,84.16
1503284569,23.01,84.09
1503284509,23.03,83.97
1503284449,23.09,83.86
1503284389,23.08,83.85
1503284329,23.01,84.20
1503284269,22.97,84.27
1503284209,23.05,83.95
1503284149,23.10,83.84
1503284089,23.12,83.69
1503284029,23.14,83.50
1503283969,23.12,83.81
1503283909,23.09,83.72
1503283849,23.12,83.66
1503283789,23.16,83.41
1503283729,23.24,83.35
1503283669,23.29,83.07
1503283609,23.31,83.13
1503283549,23.26,83.19
1503283489,23.29,83.45
1503283429,23.26,83.76
1503283369,23.23,83.34
1503283309,23.26,83.40
1503283249,23.25,83.74
1503283189,23.24,83.52
1503283129,23.18,83.65
1503283069,23.25,83.39
1503283009,23.23,83.50
1503282949,23.28,83.38
1503282889,23.27,83.45
1503282829,23.20,83.21
1503282769,23.27,83.03
1503282709,23.30,82.95
1503282649,23.28,82.98
1503282589,23.22,83.32
1503282529,23.28,83.53
1503282469,23.26,83.48
1503282409,23.27,83.21
1503282349,23.27,82.78
1503282289,23.32,82.89
1503282229,23.29,82.83
1503282169,23.31,83.09
1503282109,23.28,82.95
1503282049,23.23,82.76
1503281989,23.25,82.99
1503281929,23.28,82.93
1503281869,23.29,83.05
1503281809,23.28,82.65
1503281749,23.23,82.91
1503281689,23.17,83.23
1503281629,23.20,83.32
1503281569,23.21,83.24
1503281509,23.25,83.27
1503281449,23.18,83.53
1503281389,23.20,83.78
1503281329,23.14,83.73
1503281269,23.20,83.32
1503281209,23.26,83.05
1503281149,23.26,83.18
1503281089,23.23,83.14
1503281029,23.30,82.93
1503280969,23.29,82.73
1503280909,23.30,82.80
1503280849,23.35,82.55